BEIDOU-3 G2

Last updated on Tue Sep 16 2025 00:02:50 GMT+0000 (Coordinated Universal Time)

1 45344U 20017A 25258.60043602 -.00000156 00000+0 00000+0 0 9994 2 45344 2.8340 42.0743 0001306 279.1770 329.7480 1.00270688 20504
UTC large
Height (km)
Speed (km/s)
/
Latitude / Longitude
Inclination (degrees)
Orbital Period (minutes)
Azimuth
Elevation
Range (km)
Doppler Factor

Next 0 passes for location: London (51.5072 / 0.1276)

Sorry there are no passes over London.